Showing default

LEMUR 2 FURIAUS, 42840

Orbit data source: Space-Track

LEMUR 2 FURIAUS, 42840 is a payload satellite owned by Spire (US) in SSO that was launched on Fri, 14 Jul 2017 UTC via a SOYUZ-2-1A launch vehicle from the Tyuratam Missile And Space Complex (TTMTR). Payload-class satellites include a variety of spacecraft equipped with specific instruments for various scientific and technological missions. These include communications satellites like Starlink; space stations such as the ISS; scientific satellites like the Hubble; Earth observation satellites from companies like Planet Labs, Umbra, and HawkEye 360; GPS; miniature CubeSats for education and research; and military/defense satellites.

Loading next visibility...
Identifier
42840, 2017-042R
Orbit
SSO
Country
Flag of USUS
Related business
Manufacturer
Spire/Glasgow
Mission
Operational Commercial Com/MetRO
Bus & Motor
CUBESAT 3U, Unknown motor
Mass
4 kg wet, 4 kg dry
Launch date (UTC)
2017-07-14 (8 years ago)
Launch vehicle
SOYUZ-2-1A
Launch site
Tyuratam Missile And Space Complex (TTMTR)
Object type
Payload
Rocket body
Debris
Shape & HBR
Box, 0.5 m
Radar Cross Section
0.093 m², Small (<0.1 m²)

Expand to show TLE details & history
Last TLE update: 1 day ago

TLE from 1 day ago
0 LEMUR 2 FURIAUS
1 42840U 17042R   25338.48316183  .00030141  00000-0  13250-2 0  9999
2 42840  97.3690 154.6342 0009864  37.1729 323.0188 15.21799321458513
Epoch: 2025-12-04T11:35Z
TLE epoch observation values (Epoch: 2025-12-04T11:35:45.182Z)
Latitude
-0.00004°
Longitude
-92.84301°
Altitude
498.088 km
Speed
7.619 km/s
True Right ascension
10h 18m 32s
True Declination
0° 00' 00"
Sunlit
Object was in daylight at epoch
Visualization orbit readout
Latitude
Unknown
Longitude
Unknown
Altitude
Unknown
Speed
Unknown
Apparent Right ascension
Unknown
Apparent Declination
Unknown
Sunlit
N/A
Visualization observer readout
Local Sidereal Time
13:15:36
Azimuth
Unknown
Elevation
Unknown
Doppler factor
Unknown
Orbital elements
Apogee altitude
504.157 km
Perigee altitude
490.593 km
Semi-major axis
6,875.512 km
Eccentricity
0.00099
Inclination
97.369°
RAAN
154.6342°
Arg. of periapsis
37.1729°
True anomaly
322.95074°
Mean anomaly
323.0188°
Eccentric anomaly
322.98478°
Mean motion
3.80702 °/min
Orbital period
94.56 mins
BSTAR
0.001325
Loading maneuver chart data...
Computing Atmospheric mass density...

Documentation

Showing up to 5 results
|